Tracking 25689 objects as of 7-Jul-2022
HD Live streaming from Space Station
objects crossing your sky now

FLOCK 4A 5

Track FLOCK 4A 5 now!
10-day predictions
FLOCK 4A 5 is classified as:


NORAD ID: 44095
Int'l Code: 2019-018T
Perigee: 471.8 km
Apogee: 486.0 km
Inclination: 97.3 °
Period: 94.0 minutes
Semi major axis: 6849 km
RCS: Unknown
Launch date: April 1, 2019
Source: United States (US)
Launch site: SRIHARIKOTA (SRI)
aabbcc
Your satellite tracking list
Your tracking list is empty




NASA's NSSDC Master Catalog

Two Line Element Set (TLE):
1 44095U 19018T   22188.15622450  .00010259  00000-0  34060-3 0  9990
2 44095  97.3121 248.0214 0010413  62.0818 298.1477 15.31361198181682
Source of the keplerian elements: AFSPC